Location: Balsareny
(41.8670°N, 1.8830°E)
Time: 21:55:43
(UTC+01:00)

N. Korean satellite - Visible Passes

Search period start: 14 November 2019 00:00
Search period end: 24 November 2019 00:00
Orbit: 456 x 506 km, 97.2° (Epoch: 14 November)

Date Brightness Start Highest point End Pass type
(mag) Time Alt. Az. Time Alt. Az. Time Alt. Az.
14 Nov 8.9 06:10:33 10° NE 06:13:47 28° E 06:16:59 10° SSE visible
14 Nov 7.9 18:19:00 10° S 18:22:27 45° W 18:25:59 10° NNW visible
15 Nov 10.0 05:46:13 10° ENE 05:48:15 14° E 05:50:16 10° SE visible
16 Nov 6.6 06:52:46 10° N 06:56:30 80° WNW 07:00:10 10° SSW visible
16 Nov 10.0 19:03:24 10° WSW 19:05:18 14° W 19:07:14 10° WNW visible
17 Nov 7.8 06:27:30 10° NNE 06:31:06 46° E 06:34:38 10° S visible
17 Nov 9.0 18:36:38 10° SSW 18:39:45 27° W 18:42:55 10° NW visible
18 Nov 9.3 06:02:39 10° NE 06:05:37 22° E 06:08:32 10° SSE visible
18 Nov 7.3 18:10:42 10° S 18:14:16 59° W 18:17:55 10° NNW visible
19 Nov 10.2 05:38:52 10° ENE 05:40:01 11° E 05:41:11 10° ESE visible
19 Nov 6.9 07:10:06 10° N 07:13:41 46° WNW 07:17:11 10° SSW visible
20 Nov 6.7 06:44:37 10° NNE 06:48:20 80° ESE 06:51:59 10° S visible
20 Nov 9.8 18:54:36 10° SW 18:57:04 17° W 18:59:34 10° NW visible
21 Nov 8.3 06:19:28 10° NNE 06:22:54 36° E 06:26:17 10° SSE visible
21 Nov 8.5 18:28:10 10° SSW 18:31:32 34° W 18:34:56 10° NNW visible
22 Nov 9.6 05:54:47 10° NE 05:57:22 18° E 05:59:55 10° SE visible
22 Nov 6.9 18:02:26 10° S 18:06:04 76° WSW 18:09:47 10° NNW visible
23 Nov 6.6 07:01:52 10° N 07:05:31 59° WNW 07:09:03 10° SSW visible
23 Nov 10.3 19:13:32 10° WSW 19:14:24 11° W 19:15:16 10° WNW visible
